AMAZONAS 4A

Last updated on Thu Jul 03 2025 00:02:46 GMT+0000 (Coordinated Universal Time)

1 39616U 14011A 25183.55193874 -.00000244 00000+0 00000+0 0 9992 2 39616 0.0571 198.5293 0004561 292.7773 274.2011 1.00268707 41205
UTC large
Height (km)
Speed (km/s)
/
Latitude / Longitude
Inclination (degrees)
Orbital Period (minutes)
Azimuth
Elevation
Range (km)
Doppler Factor

Next 0 passes for location: London (51.5072 / 0.1276)

Sorry there are no passes over London.